SPACEBEE-111 (48904 NORAD) Tracking and Keplerian Element Data

This shows tracking and keplerian element data for the satellite.

Feedback or suggestion? Click here.




ElementValue
Catalog48904
NameSPACEBEE-111
Epoch Orbit1383
Epoch Day268.32316284
Epoch Year2021
RAAN35.8448
Inclination97.5273
Eccentricity0.000981
Argument of Perigee300.9143
Mean Anonmoly59.1123
Mean Motion15.12683581
Decay Rate4.059E-05
L11 48904U 21059AB 21268.32316284 .00004059 00000-0 23546-3 0 9991
L22 48904 97.5273 35.8448 0009810 300.9143 59.1123 15.12683581 13836

Live tracking and technical data element details for SPACEBEE-111 (NORAD 48904). SPACEBEE-111 can be tracked NOW for your location showing map with azimuth and elevation plus other details from your city location.

Track the satellite on the map from your city or location and see movement details for azimuth, elevation, latitude, longitude, range, height, and movement on the map or in text.







IsCatalogInMostPopularTable: catalog: 48904, numindb: 15
Update: records affected: 1



GetName: 48904 SPACEBEE-111

Hit Count: updated at: Sun, 26 Sep 2021 16:26:23 GMT